EW7836 Weather Reports


Display with metric or nautical units.
time (UTC)temp
F
wind
direction
speed
MPH
gust
MPH
rain 1hr
in
rain 24hr
in
rain mn
in
humidity
%
barometer
mb
20211207180623 40 169 9.0 18.0 0.00 0.00 0.00 49 1013.5
20211207180131 40 210 10.0 16.0 0.00 0.00 0.00 50 1013.4
20211207175616 39 213 8.0 20.0 0.00 0.00 0.00 49 1013.6
20211207175125 39 211 8.0 20.0 0.00 0.00 0.00 50 1013.8
20211207174634 39 202 8.0 17.0 0.00 0.00 0.00 49 1013.9
20211207174123 39 216 2.0 14.0 0.00 0.00 0.00 51 1014.2
20211207173628 39 238 5.0 14.0 0.00 0.00 0.00 51 1014.2
20211207173116 38 206 6.0 14.0 0.00 0.00 0.00 51 1014.3
20211207172626 38 211 3.0 11.0 0.00 0.00 0.00 53 1014.4
20211207172115 37 222 6.0 12.0 0.00 0.00 0.00 53 1014.7
20211207171626 37 199 2.0 16.0 0.00 0.00 0.00 55 1014.7
20211207171115 36 193 3.0 21.0 0.00 0.00 0.00 56 1014.8
20211207170626 36 194 6.0 21.0 0.00 0.00 0.00 55 1015.0
20211207170116 35 195 11.0 19.0 0.00 0.00 0.00 56 1015.0
20211207165625 35 198 7.0 20.0 0.00 0.00 0.00 56 1015.4
20211207165134 34 200 11.0 19.0 0.00 0.00 0.00 57 1015.5
20211207164624 34 213 11.0 19.0 0.00 0.00 0.00 57 1015.5
20211207164133 34 188 7.0 19.0 0.00 0.00 0.00 58 1015.6
20211207163620 33 195 7.0 20.0 0.00 0.00 0.00 58 1015.7
20211207163130 33 196 9.0 19.0 0.00 0.00 0.00 58 1015.6
20211207162618 33 189 8.0 18.0 0.00 0.00 0.00 59 1015.5
20211207162127 32 176 7.0 16.0 0.00 0.00 0.00 60 1015.6
20211207161632 32 173 3.0 15.0 0.00 0.00 0.00 61 1015.6
20211207161119 31 203 4.0 12.0 0.00 0.00 0.00 62 1015.8
20211207160626 30 181 3.0 10.0 0.00 0.00 0.00 62 1015.8
20211207160115 30 188 0.0 10.0 0.00 0.00 0.00 62 1015.9
20211207155624 30 175 2.0 11.0 0.00 0.00 0.00 63 1015.9
20211207155132 30 178 0.0 11.0 0.00 0.00 0.00 62 1016.0
20211207154620 30 209 1.0 11.0 0.00 0.00 0.00 63 1016.0
20211207154128 29 213 2.0 12.0 0.00 0.00 0.00 63 1015.8
20211207153621 29 174 1.0 12.0 0.00 0.00 0.00 63 1015.8
20211207153130 29 190 2.0 12.0 0.00 0.00 0.00 63 1015.8
20211207152618 28 183 0.0 7.0 0.00 0.00 0.00 64 1015.5
20211207152123 28 179 0.0 1.0 0.00 0.00 0.00 64 1015.8
20211207151633 28 143 0.0 1.0 0.00 0.00 0.00 64 1015.8
20211207151122 28 145 0.0 1.0 0.00 0.00 0.00 64 1015.8
20211207150631 27 162 0.0 1.0 0.00 0.00 0.00 64 1016.0
20211207150120 27 180 0.0 5.0 0.00 0.00 0.00 65 1016.0
20211207145628 27 153 0.0 5.0 0.00 0.00 0.00 64 1016.0
20211207145118 27 140 0.0 6.0 0.00 0.00 0.00 64 1016.0
20211207144627 27 146 0.0 6.0 0.00 0.00 0.00 64 1016.1
20211207144134 27 183 0.0 6.0 0.00 0.00 0.00 64 1016.1
20211207143625 27 183 0.0 2.0 0.00 0.00 0.00 64 1016.4
20211207143132 27 182 0.0 3.0 0.00 0.00 0.00 64 1016.5
20211207142621 27 178 0.0 4.0 0.00 0.00 0.00 64 1016.6
20211207142129 27 186 0.0 4.0 0.00 0.00 0.00 64 1016.6
20211207141634 27 198 0.0 6.0 0.00 0.00 0.00 64 1016.6
20211207141124 27 194 0.0 6.0 0.00 0.00 0.00 64 1016.6
20211207140633 27 204 0.0 1.0 0.00 0.00 0.00 63 1016.4
20211207140124 27 182 0.0 0.0 0.00 0.00 0.00 63 1016.5
20211207135633 27 188 0.0 7.0 0.00 0.00 0.00 63 1016.5
20211207135123 27 172 1.0 10.0 0.00 0.00 0.00 64 1016.3
20211207134632 27 192 1.0 10.0 0.00 0.00 0.00 63 1016.2
20211207134120 27 176 0.0 2.0 0.00 0.00 0.00 64 1016.1
20211207133629 27 181 0.0 2.0 0.00 0.00 0.00 64 1016.0
20211207132629 26 164 1.0 9.0 0.00 0.00 0.00 64 1016.1
20211207132119 26 153 1.0 9.0 0.00 0.00 0.00 64 1016.2
20211207131628 26 198 0.0 1.0 0.00 0.00 0.00 64 1016.1
20211207131136 26 111 0.0 4.0 0.00 0.00 0.00 64 1016.2
20211207130624 26 153 0.0 4.0 0.00 0.00 0.00 64 1016.3
20211207130132 26 132 0.0 1.0 0.00 0.00 0.00 64 1016.2
20211207125622 26 113 0.0 10.0 0.00 0.00 0.00 64 1016.0
20211207125128 26 112 0.0 10.0 0.00 0.00 0.00 64 1016.0
20211207124619 26 130 2.0 9.0 0.00 0.00 0.00 64 1016.0
20211207124126 26 140 0.0 6.0 0.00 0.00 0.00 63 1015.9
20211207123635 26 141 0.0 9.0 0.00 0.00 0.00 63 1015.9
20211207123121 26 138 0.0 9.0 0.00 0.00 0.00 63 1016.0
20211207122632 26 105 1.0 14.0 0.00 0.00 0.00 63 1015.8
20211207122121 26 118 3.0 14.0 0.00 0.00 0.00 63 1016.0
20211207121616 26 123 1.0 11.0 0.00 0.00 0.00 63 1016.1
20211207121126 26 146 2.0 15.0 0.00 0.00 0.00 63 1016.2
20211207120619 26 130 0.0 15.0 0.00 0.00 0.00 62 1016.3
20211207120127 26 143 0.0 5.0 0.00 0.00 0.00 62 1016.4
20211207115618 26 155 0.0 10.0 0.00 0.00 0.00 62 1016.4
20211207115127 26 134 1.0 10.0 0.00 0.00 0.00 62 1016.3
20211207114616 26 150 0.0 9.0 0.00 0.00 0.00 62 1016.3
20211207114121 26 137 1.0 6.0 0.00 0.00 0.00 62 1016.3
20211207113630 26 115 0.0 7.0 0.00 0.00 0.00 62 1016.4
20211207113118 26 157 0.0 9.0 0.00 0.00 0.00 62 1016.4
20211207112627 26 61 0.0 9.0 0.00 0.00 0.00 62 1016.3
20211207112115 26 145 1.0 9.0 0.00 0.00 0.00 62 1016.7
20211207111625 26 191 0.0 9.0 0.00 0.00 0.00 62 1016.8
20211207111134 26 125 2.0 10.0 0.00 0.00 0.00 62 1016.8
20211207110624 26 134 1.0 10.0 0.00 0.00 0.00 61 1016.8
20211207110132 26 129 1.0 12.0 0.00 0.00 0.00 61 1016.7
20211207105623 26 147 0.0 12.0 0.00 0.00 0.00 61 1016.6
20211207105132 25 142 0.0 5.0 0.00 0.00 0.00 61 1016.5
20211207104624 25 139 1.0 13.0 0.00 0.00 0.00 61 1016.4
20211207104135 25 167 2.0 13.0 0.00 0.00 0.00 61 1016.7
20211207103620 25 165 0.0 8.0 0.00 0.00 0.00 61 1016.8
20211207103130 25 153 0.0 10.0 0.00 0.00 0.00 61 1016.7
20211207102615 25 129 0.0 10.0 0.00 0.00 0.00 61 1016.5
20211207102124 24 117 0.0 10.0 0.00 0.00 0.00 61 1016.2
20211207101632 24 190 1.0 10.0 0.00 0.00 0.00 61 1016.2
20211207101122 24 121 0.0 10.0 0.00 0.00 0.00 62 1016.3
20211207100632 24 97 1.0 10.0 0.00 0.00 0.00 62 1016.4
20211207100122 24 131 0.0 11.0 0.00 0.00 0.00 62 1016.6
20211207095631 23 110 0.0 11.0 0.00 0.00 0.00 62 1016.7
20211207095121 23 102 1.0 10.0 0.00 0.00 0.00 62 1016.9
20211207094630 23 96 0.0 6.0 0.00 0.00 0.00 62 1017.1
20211207094123 23 102 0.0 9.0 0.00 0.00 0.00 62 1017.1
20211207093633 23 104 2.0 14.0 0.00 0.00 0.00 62 1017.3
20211207093120 23 113 3.0 14.0 0.00 0.00 0.00 62 1017.6
20211207092631 23 99 3.0 13.0 0.00 0.00 0.00 62 1017.6
20211207092120 23 108 2.0 13.0 0.00 0.00 0.00 63 1017.8
20211207091627 23 119 0.0 9.0 0.00 0.00 0.00 63 1018.0
20211207091117 23 102 1.0 12.0 0.00 0.00 0.00 63 1018.2
20211207090627 23 82 4.0 12.0 0.00 0.00 0.00 63 1018.2
20211207090115 23 94 1.0 7.0 0.00 0.00 0.00 63 1018.3
20211207085626 23 78 0.0 3.0 0.00 0.00 0.00 63 1018.4
20211207085135 23 116 0.0 12.0 0.00 0.00 0.00 63 1018.6
20211207084625 23 85 0.0 16.0 0.00 0.00 0.00 63 1018.7
20211207084133 22 100 0.0 16.0 0.00 0.00 0.00 63 1018.7
20211207083624 22 92 2.0 15.0 0.00 0.00 0.00 62 1018.8
20211207083133 22 101 1.0 11.0 0.00 0.00 0.00 62 1018.8
20211207082624 22 95 0.0 11.0 0.00 0.00 0.00 62 1018.9
20211207082132 22 102 1.0 10.0 0.00 0.00 0.00 62 1019.0
20211207081620 22 108 0.0 10.0 0.00 0.00 0.00 62 1019.0
20211207081129 22 102 0.0 11.0 0.00 0.00 0.00 62 1019.0
20211207080618 22 105 1.0 10.0 0.00 0.00 0.00 62 1019.2
20211207080126 22 115 0.0 9.0 0.00 0.00 0.00 62 1019.4
20211207075635 22 92 1.0 13.0 0.00 0.00 0.00 62 1019.5
20211207075126 22 95 0.0 4.0 0.00 0.00 0.00 63 1019.7
20211207074635 22 94 0.0 6.0 0.00 0.00 0.00 63 1019.7
20211207074124 22 105 0.0 11.0 0.00 0.00 0.00 63 1019.8
20211207073633 21 80 0.0 13.0 0.00 0.00 0.00 64 1019.8
20211207073122 21 101 2.0 13.0 0.00 0.00 0.00 64 1019.9
20211207072630 21 92 0.0 2.0 0.00 0.00 0.00 64 1020.1
20211207072125 21 104 0.0 8.0 0.00 0.00 0.00 64 1020.4
20211207071634 21 88 0.0 10.0 0.00 0.00 0.00 64 1020.4
20211207071120 21 105 2.0 11.0 0.00 0.00 0.00 64 1020.5
20211207070625 21 94 0.0 4.0 0.00 0.00 0.00 64 1020.6
20211207070132 21 94 0.0 1.0 0.00 0.00 0.00 65 1020.7
20211207065617 21 98 0.0 0.0 0.00 0.00 0.00 65 1020.9
20211207065125 21 92 0.0 1.0 0.00 0.00 0.00 65 1021.0
20211207064634 20 85 0.0 1.0 0.00 0.00 0.00 65 1021.1
20211207064124 20 92 0.0 3.0 0.00 0.00 0.00 65 1021.3
20211207063633 20 94 0.0 0.0 0.00 0.00 0.00 65 1021.5
20211207063122 20 95 0.0 0.0 0.00 0.00 0.00 65 1021.5
20211207062633 20 100 0.0 0.0 0.00 0.00 0.00 65 1021.5
20211207062123 20 98 0.0 0.0 0.00 0.00 0.00 65 1021.6
20211207061634 20 101 0.0 0.0 0.00 0.00 0.00 65 1021.7
20211207061119 20 93 0.0 4.0 0.00 0.00 0.00 65 1021.9
20211207060627 20 116 0.0 4.0 0.00 0.00 0.00 64 1021.9
20211207060116 20 137 0.0 1.0 0.00 0.00 0.00 64 1021.9
20211207055126 20 113 0.0 10.0 0.00 0.00 0.00 64 1022.0
20211207054635 20 74 0.0 10.0 0.00 0.00 0.00 64 1021.9
20211207054124 19 91 0.0 0.0 0.00 0.00 0.00 65 1021.7
20211207053633 19 84 0.0 0.0 0.00 0.00 0.00 65 1021.7
20211207053123 19 79 0.0 0.0 0.00 0.00 0.00 66 1021.8
20211207052632 19 102 0.0 0.0 0.00 0.00 0.00 66 1022.0
20211207052120 19 78 0.0 4.0 0.00 0.00 0.00 66 1022.2
20211207051630 18 78 0.0 4.0 0.00 0.00 0.00 66 1022.2
20211207051119 18 72 0.0 6.0 0.00 0.00 0.00 67 1022.4
20211207050627 18 74 0.0 6.0 0.00 0.00 0.00 67 1022.3
20211207050118 18 78 0.0 0.0 0.00 0.00 0.00 67 1022.4
20211207045619 18 89 0.0 0.0 0.00 0.00 0.00 68 1022.6
20211207045129 17 115 0.0 0.0 0.00 0.00 0.00 68 1022.7
20211207044619 17 87 0.0 0.0 0.00 0.00 0.00 69 1022.6
20211207044120 17 96 0.0 0.0 0.00 0.00 0.00 69 1022.7
20211207043628 16 103 0.0 0.0 0.00 0.00 0.00 69 1022.7
20211207043119 17 100 0.0 0.0 0.00 0.00 0.00 68 1022.9
20211207042629 17 86 0.0 0.0 0.00 0.00 0.00 69 1023.0
20211207042124 16 86 0.0 0.0 0.00 0.00 0.00 69 1023.1
20211207041632 16 86 0.0 0.0 0.00 0.00 0.00 69 1022.9
20211207041121 16 86 0.0 0.0 0.00 0.00 0.00 68 1022.8
20211207040628 16 86 0.0 0.0 0.00 0.00 0.00 68 1023.0
20211207040118 16 86 0.0 0.0 0.00 0.00 0.00 67 1023.0
20211207035624 16 86 0.0 0.0 0.00 0.00 0.00 68 1023.0
20211207035134 16 87 0.0 0.0 0.00 0.00 0.00 67 1023.1
20211207034621 17 87 0.0 0.0 0.00 0.00 0.00 66 1023.2
20211207034129 17 87 0.0 0.0 0.00 0.00 0.00 66 1023.5
20211207033617 17 87 0.0 0.0 0.00 0.00 0.00 66 1023.4
20211207033127 17 87 0.0 0.0 0.00 0.00 0.00 66 1023.3
20211207032634 17 87 0.0 0.0 0.00 0.00 0.00 65 1023.0
20211207032124 17 87 0.0 0.0 0.00 0.00 0.00 64 1023.1
20211207031633 18 87 0.0 0.0 0.00 0.00 0.00 65 1023.3
20211207031123 17 87 0.0 0.0 0.00 0.00 0.00 65 1023.2
20211207030633 18 87 0.0 0.0 0.00 0.00 0.00 63 1023.1
20211207030123 17 87 0.0 0.0 0.00 0.00 0.00 64 1023.1
20211207025632 17 87 0.0 0.0 0.00 0.00 0.00 64 1023.0
20211207025121 18 87 0.0 0.0 0.00 0.00 0.00 63 1023.0
20211207024629 18 92 0.0 0.0 0.00 0.00 0.00 64 1023.2
20211207024117 18 92 0.0 0.0 0.00 0.00 0.00 63 1023.3
20211207023625 18 92 0.0 0.0 0.00 0.00 0.00 63 1023.3
20211207023134 18 74 0.0 0.0 0.00 0.00 0.00 63 1023.4
20211207022622 18 69 0.0 0.0 0.00 0.00 0.00 63 1023.4
20211207022132 18 69 0.0 0.0 0.00 0.00 0.00 64 1023.3
20211207021621 17 66 0.0 0.0 0.00 0.00 0.00 63 1023.2
20211207021131 18 62 0.0 0.0 0.00 0.00 0.00 61 1023.2
20211207020620 18 62 0.0 0.0 0.00 0.00 0.00 62 1023.4
20211207020129 18 62 0.0 0.0 0.00 0.00 0.00 62 1023.3
20211207015623 18 63 0.0 0.0 0.00 0.00 0.00 61 1023.4
20211207015132 18 63 0.0 0.0 0.00 0.00 0.00 62 1023.6
20211207014621 18 63 0.0 0.0 0.00 0.00 0.00 62 1023.6
20211207014130 18 57 0.0 0.0 0.00 0.00 0.00 61 1023.7
20211207013619 18 57 0.0 0.0 0.00 0.00 0.00 61 1023.6
20211207013127 18 57 0.0 0.0 0.00 0.00 0.00 62 1023.5
20211207012616 19 57 0.0 0.0 0.00 0.00 0.00 59 1023.7
20211207012125 19 57 0.0 0.0 0.00 0.00 0.00 61 1023.8
20211207011634 19 57 0.0 0.0 0.00 0.00 0.00 60 1023.9
20211207011123 19 57 0.0 0.0 0.00 0.00 0.00 59 1023.9
20211207010132 19 57 0.0 0.0 0.00 0.00 0.00 59 1023.9
20211207005621 19 57 0.0 0.0 0.00 0.00 0.00 58 1023.9
20211207005129 20 57 0.0 0.0 0.00 0.00 0.00 56 1023.9
20211207004617 20 57 0.0 0.0 0.00 0.00 0.00 54 1023.9
20211207004124 21 57 0.0 0.0 0.00 0.00 0.00 53 1023.9
20211207003634 21 57 0.0 0.0 0.00 0.00 0.00 50 1023.7
20211207003123 21 57 0.0 0.0 0.00 0.00 0.00 50 1023.9
20211207002632 22 57 0.0 0.0 0.00 0.00 0.00 50 1023.9
20211207002119 22 64 0.0 0.0 0.00 0.00 0.00 50 1024.0
20211207001629 22 315 0.0 0.0 0.00 0.00 0.00 50 1024.1
20211207001119 22 315 0.0 0.0 0.00 0.00 0.00 50 1024.1
20211207000628 22 315 0.0 0.0 0.00 0.00 0.00 49 1024.1
20211207000115 22 315 0.0 0.0 0.00 0.00 0.00 49 1024.3
20211206235625 22 288 0.0 0.0 0.00 0.00 0.00 50 1024.4
20211206235133 22 288 0.0 0.0 0.00 0.00 0.00 50 1024.3
20211206234623 22 288 0.0 0.0 0.00 0.00 0.00 52 1024.3
20211206234131 22 286 0.0 0.0 0.00 0.00 0.00 51 1024.3
20211206233621 22 288 0.0 0.0 0.00 0.00 0.00 50 1024.4
20211206233126 22 291 0.0 0.0 0.00 0.00 0.00 50 1024.4
20211206232634 22 291 0.0 0.0 0.00 0.00 0.00 50 1024.3
20211206232124 22 291 0.0 0.0 0.00 0.00 0.00 50 1024.4
20211206231632 22 290 0.0 0.0 0.00 0.00 0.00 50 1024.4
20211206231121 22 289 0.0 0.0 0.00 0.00 0.00 50 1024.5
20211206230629 22 268 0.0 0.0 0.00 0.00 0.00 50 1024.8
20211206230122 23 268 0.0 0.0 0.00 0.00 0.00 49 1024.8
20211206225632 23 299 0.0 0.0 0.00 0.00 0.00 48 1024.9
20211206225121 23 304 0.0 0.0 0.00 0.00 0.00 49 1024.9
20211206224631 23 304 0.0 0.0 0.00 0.00 0.00 49 1025.2
20211206224120 23 304 0.0 0.0 0.00 0.00 0.00 48 1025.2
20211206223628 23 267 0.0 0.0 0.00 0.00 0.00 48 1025.4
20211206223117 24 283 0.0 0.0 0.00 0.00 0.00 48 1025.3
20211206222627 24 262 0.0 7.0 0.00 0.00 0.00 47 1025.4
20211206222117 24 289 1.0 8.0 0.00 0.00 0.00 48 1025.6
20211206221623 24 287 0.0 8.0 0.00 0.00 0.00 48 1025.7
20211206221133 24 253 1.0 8.0 0.00 0.00 0.00 48 1025.8
20211206220622 24 268 0.0 4.0 0.00 0.00 0.00 48 1025.8
20211206220132 24 279 0.0 4.0 0.00 0.00 0.00 48 1025.7
20211206215624 24 252 0.0 1.0 0.00 0.00 0.00 48 1025.5
20211206215129 24 276 0.0 1.0 0.00 0.00 0.00 49 1025.6
20211206214619 24 261 0.0 1.0 0.00 0.00 0.00 48 1025.6
20211206214127 24 279 0.0 8.0 0.00 0.00 0.00 48 1025.7
20211206213617 24 287 2.0 12.0 0.00 0.00 0.00 48 1025.9
20211206213119 24 272 3.0 14.0 0.00 0.00 0.00 48 1025.9
20211206212626 25 242 8.0 14.0 0.00 0.00 0.00 48 1025.8
20211206212116 25 246 0.0 8.0 0.00 0.00 0.00 49 1025.9
20211206211625 25 251 2.0 8.0 0.00 0.00 0.00 49 1026.3
20211206211115 25 261 0.0 13.0 0.00 0.00 0.00 49 1026.3
20211206210624 25 254 4.0 13.0 0.00 0.00 0.00 49 1026.5
20211206210133 25 252 2.0 11.0 0.00 0.00 0.00 50 1026.5
20211206205622 25 244 1.0 7.0 0.00 0.00 0.00 50 1026.4
20211206205131 25 248 0.0 11.0 0.00 0.00 0.00 50 1026.5
20211206204621 25 262 7.0 11.0 0.00 0.00 0.00 50 1026.4
20211206204129 25 258 0.0 6.0 0.00 0.00 0.00 50 1026.6
20211206203621 25 289 0.0 12.0 0.00 0.00 0.00 50 1026.5
20211206203129 25 329 0.0 12.0 0.00 0.00 0.00 50 1026.3
20211206202617 26 247 0.0 2.0 0.00 0.00 0.00 49 1026.4
20211206202126 26 282 0.0 12.0 0.00 0.00 0.00 48 1026.3
20211206201633 26 255 0.0 12.0 0.00 0.00 0.00 50 1026.6
20211206201122 26 271 1.0 10.0 0.00 0.00 0.00 50 1026.8
20211206200631 25 325 1.0 9.0 0.00 0.00 0.00 50 1026.7
20211206200119 25 266 0.0 8.0 0.00 0.00 0.00 51 1026.7
20211206195628 25 298 1.0 12.0 0.00 0.00 0.00 51 1026.9
20211206195135 25 275 3.0 12.0 0.00 0.00 0.00 52 1026.9
20211206194623 25 274 0.0 13.0 0.00 0.00 0.00 52 1026.9
20211206194133 25 323 0.0 12.0 0.00 0.00 0.00 53 1026.9
20211206193622 24 276 2.0 13.0 0.00 0.00 0.00 53 1026.9
20211206193131 25 308 3.0 13.0 0.00 0.00 0.00 52 1026.9
20211206192618 25 283 0.0 13.0 0.00 0.00 0.00 53 1026.9
20211206192127 25 269 4.0 13.0 0.00 0.00 0.00 54 1027.0
20211206191616 25 248 5.0 12.0 0.00 0.00 0.00 53 1027.1
20211206191125 25 258 1.0 12.0 0.00 0.00 0.00 54 1027.1
20211206190635 25 271 0.0 11.0 0.00 0.00 0.00 55 1027.2
20211206190123 26 285 0.0 7.0 0.00 0.00 0.00 55 1027.3
20211206185631 24 300 0.0 12.0 0.00 0.00 0.00 56 1027.3
20211206185121 25 263 2.0 12.0 0.00 0.00 0.00 56 1027.3
20211206184631 25 283 0.0 10.0 0.00 0.00 0.00 57 1027.4
20211206184119 24 273 3.0 11.0 0.00 0.00 0.00 58 1027.4
20211206183627 24 275 2.0 11.0 0.00 0.00 0.00 56 1027.5
20211206183117 24 259 1.0 10.0 0.00 0.00 0.00 56 1027.6
20211206182624 25 261 0.0 13.0 0.00 0.00 0.00 56 1027.5
20211206182133 25 277 1.0 14.0 0.00 0.00 0.00 56 1027.5
20211206181623 24 280 5.0 14.0 0.00 0.00 0.00 55 1027.6
20211206181131 25 281 5.0 13.0 0.00 0.00 0.00 56 1027.5